Other Public Products
Issued by NWS Charleston, SC

Home | Current Version | Previous Version | Text Only | Print | Product List | Glossary On
Versions: 1 2 3 4 5 6 7 8 9 10 11 12 13 14 15 16 17 18 19 20 21 22 23 24 25 26 27 28 29 30 31 32 33 34 35 36 37 38 39 40 41 42 43 44 45 46 47 48 49 50
000
FPUS82 KCHS 240112
OPUCHS

TEST...KCHS/KSAV Gateway Observations...TEST
National Weather Service Charleston SC
900 PM EDT MON OCT 23 2017

NOTE: "fair" indicates few or no clouds below 12,000 feet with no
significant weather and/or obstructions to visibility.

SCZ050-WAZ558-NCZ071-TXZ119-213-PAZ071-DCZ001-FLZ074-172-MI076-
NYZ176-178-MAZ016-IL014-TNZ027-NJZ106-GAZ044-MD014-240200-

...Gateway Observations for Charleston International...

CITY           SKY/WX    TMP DP  RH WIND       PRES   REMARKS
Chas Airport   LGT RAIN  75  73  93 SW14G24   29.87R
Seattle        MOCLDY    62  45  53 NW3       30.62S
Charlotte      PTCLDY    61  61 100 S7        29.81R
Dallas DFW     PTCLDY    74  49  41 N14       30.09R
Dallas Love    PTCLDY    75  48  38 N13       30.09R
Philladelphia  CLOUDY    70  65  84 SE10      30.00F
Wash National  CLOUDY    73  66  78 SE14G24   29.88F
Baltimore      CLOUDY    71  65  81 SE10G22   29.90F
Miami          CLOUDY    82  75  79 SE9       29.98R
Detroit        CLOUDY    61  57  87 S21G37    29.46F
Newark         CLOUDY    68  64  87 SE13G21   30.05F
Laguardia      MOCLDY    71  63  75 SE15G22   30.05F
J F K          CLOUDY    68  65  90 SE18      30.07F
Boston Logan   CLOUDY    59  58  96 CALM      30.18F
Ft. Lauderdale MOCLDY    82  76  81 SE10      29.97S
Chicago O`Hare CLOUDY    52  45  77 SW7       29.65S
Chicago Midway CLOUDY    52  48  86 SW8       29.66S
Houston Bush   PTCLDY    64  54  69 CALM      30.07R
Houston Hobby  PTCLDY    68  50  52 S5        30.07R
Nashville      PTCLDY    54  48  80 SW8       29.92R
Atlanta        PTCLDY    60  54  80 W9        29.93R

$$

GAZ044-118-TXZ119-213-NCZ071-DCZ001-MDZ014-506-PAZ021-071-NJZ106-
NYZ176-178-MAZ106-OHZ011-021-055-MIZ076-KYZ091-ILZ014-INZ047-
MNZ060-ONZ431-240200-

...Gateway Observations for Savannah International...

CITY           SKY/WX    TMP DP  RH WIND       PRES   REMARKS
Savannah Arpt  PTCLDY    73  73 100 S8        29.90R
Atlanta        PTCLDY    60  54  80 W9        29.93R
Charlotte      PTCLDY    61  61 100 S7        29.81R
Dallas DFW     PTCLDY    74  49  41 N14       30.09R
Houston Bush   PTCLDY    64  54  69 CALM      30.07R
Wash National  CLOUDY    73  66  78 SE14G24   29.88F
Wash Dulles    CLOUDY    72  66  81 SE18      29.86S
Baltimore      CLOUDY    71  65  81 SE10G22   29.90F
Philadelphia   CLOUDY    70  65  84 SE10      30.00F
Newark         CLOUDY    68  64  87 SE13G21   30.05F
Laguardia      MOCLDY    71  63  75 SE15G22   30.05F
J F K          CLOUDY    68  65  90 SE18      30.07F
Boston         CLOUDY    59  58  96 CALM      30.18F
Pittsburg      LGT RAIN  56  56 100 SE12      29.76R FOG
Akron          RAIN      58  53  84 S20       29.66R
Cleveland      CLOUDY    60  56  86 S18G25    29.62R
Cincinnati     LGT RAIN  54  54 100 SW12      29.68R FOG
Columbus       CLOUDY    56  56  99 S9        29.63F
Detroit        CLOUDY    61  57  87 S21G37    29.46F
Chicago O`Hare CLOUDY    52  45  77 SW7       29.65S
Minneapolis    CLOUDY    49  32  52 N17G25    29.86R
Indianapolis   CLOUDY    48  46  93 SW7       29.73R
Toronto Canada LGT RAIN  61  57  88 E10G21    29.66F

$$




USA.gov is the U.S. government's official web portal to all federal, state and local government web resources and services.